Kirksville, MO

12:58 PM CST on February 18, 2018 (GMT -0600)
Kirksville Regional

Weather History for KIRK - August, 2014

Change the Weather History Date:

Tuesday, August 12, 2014

  Actual Average Record
Temperature  
Mean Temperature 68 °F 75 °F  
Max Temperature 79 °F 85 °F 107 °F (1936)
Min Temperature 56 °F 64 °F 46 °F (1979)
Degree Days  
Heating Degree Days 0 0  
Month to date heating degree days 0 0  
Since 1 June heating degree days 12 17  
Since 1 July heating degree days 6 1  
Cooling Degree Days 3 10  
Month to date cooling degree days 84 121  
Year to date cooling degree days 644 688  
Since 1 June cooling degree days 522 626  
Growing Degree Days 18 (Base 50)    
Moisture  
Dew Point 56 °F    
Average Humidity 71    
Maximum Humidity 100    
Minimum Humidity 42    
Precipitation  
Precipitation 0.00 in 0.12 in 1.60 in (1949)
Month to date precipitation 1.42 1.34  
Year to date precipitation 20.75 24.93  
Sea Level Pressure  
Sea Level Pressure 30.05 in    
Wind  
Wind Speed 8 mph (NW)    
Max Wind Speed 17 mph    
Max Gust Speed 23 mph    
Visibility 10 miles    
Events      
T = Trace of Precipitation, MM = Missing Value Source: NWS Daily Summary

Daily Weather History Graph

Daily Weather History Graph

Search for Another Location

Airport or City:

Trip Planner

Search our weather history database for the weather conditions in past years. The results will help you decide how hot, cold, wet, or windy it might be!

Date:

Astronomy

Aug. 12, 2014 Rise Set
Actual Time 6:18 AM CDT 8:10 PM CDT
Civil Twilight 5:49 AM CDT 8:40 PM CDT
Nautical Twilight 5:13 AM CDT 9:15 PM CDT
Astronomical Twilight 4:35 AM CDT 9:53 PM CDT
Moon 9:18 PM CDT (8/12) 8:36 AM CDT (8/12)
Length of Visible Light 14h 50m
Length of Day
13h 52m
Waning Gibbous, 94% of the Moon is Illuminated
Aug 12
Waning Gibbous
Aug 17
Last Quarter
Aug 25
New
Sep 2
First Quarter
Sep 8
Full

Hourly Weather History & Observations

Time (CDT) Temp. Dew Point Humidity Pressure Visibility Wind Dir Wind Speed Gust Speed Precip Events Conditions
12:55 AM 62.1 °F - N/A% 30.01 in 10.0 mi NW 5.8 mph - N/A   Clear
1:55 AM 61.0 °F - N/A% 30.01 in 10.0 mi WNW 5.8 mph - N/A   Clear
2:55 AM 62.1 °F - N/A% 30.00 in 10.0 mi NW 8.1 mph - N/A   Clear
3:55 AM 60.1 °F - N/A% 30.01 in 10.0 mi NW 6.9 mph - N/A   Clear
4:55 AM 59.0 °F - N/A% 30.01 in 10.0 mi WNW 6.9 mph - N/A   Clear
5:55 AM 57.9 °F - N/A% 30.03 in 10.0 mi NW 6.9 mph - N/A   Clear
6:55 AM 59.0 °F - N/A% 30.05 in 10.0 mi NW 9.2 mph - N/A   Clear
7:55 AM 62.1 °F 55.9 °F 80% 30.05 in 10.0 mi NNW 10.4 mph - N/A   Clear
8:55 AM 66.0 °F 57.0 °F 73% 30.07 in 10.0 mi NNW 9.2 mph - N/A   Clear
9:55 AM 70.0 °F 57.9 °F 65% 30.08 in 10.0 mi NNW 10.4 mph - N/A   Clear
10:55 AM 73.0 °F 57.9 °F 59% 30.08 in 10.0 mi North 13.8 mph - N/A   Clear
12:55 PM 77.0 °F 55.9 °F 48% 30.06 in 10.0 mi NNW 13.8 mph 17.3 mph N/A   Clear
1:55 PM 77.0 °F 55.9 °F 48% 30.06 in 10.0 mi North 13.8 mph 18.4 mph N/A   Mostly Cloudy
2:55 PM 78.8 °F 55.4 °F 44% 30.06 in 10.0 mi North 11.5 mph - N/A   Scattered Clouds
3:55 PM 78.1 °F 55.9 °F 46% 30.05 in 10.0 mi NNW 12.7 mph - N/A   Partly Cloudy
4:55 PM 78.1 °F 54.0 °F 43% 30.04 in 10.0 mi WNW 10.4 mph - N/A   Partly Cloudy
5:55 PM 77.0 °F 55.9 °F 48% 30.05 in 10.0 mi NW 8.1 mph - N/A   Scattered Clouds
6:55 PM 75.0 °F 55.0 °F 50% 30.04 in 10.0 mi NW 8.1 mph - N/A   Clear
7:55 PM 69.1 °F 57.9 °F 68% 30.05 in 10.0 mi NW 3.5 mph - N/A   Clear
8:55 PM 62.1 °F 57.9 °F 86% 30.06 in 10.0 mi WNW 3.5 mph - N/A   Clear
9:55 PM 59.0 °F 57.0 °F 93% 30.07 in 10.0 mi NNW 3.5 mph - N/A   Clear
10:55 PM 57.9 °F 57.0 °F 97% 30.08 in 10.0 mi NW 4.6 mph - N/A   Clear
11:55 PM 57.9 °F 55.9 °F 93% 30.08 in 10.0 mi NW 4.6 mph - N/A   Clear